• Join FlightAware (Why Join?)
  • Login
  • US Flag 
03:29PM EST


 

Airport Tracker/Info


-or-


 

Live Flight TrackerFlight Track Log ✈ AAL1012 ✈ 26-Apr-2013 ✈ KMIA - KPHL

Flight Track Log - Related Links

Times and Time Zones

All times are in EDT time to prevent confusion due to time zone crossing. See the AAL1012 flight status page for this flight to view local times or setup timezone preferences in your user account.

Time Position Orientation Groundspeed Altitude Reporting Facility
EDT Latitude Longitude Course Direction KTS MPH feet Rate Location/Type
03:16PM 25.8020 -80.2660 90° East 188 216 700  Level FlightAware
03:16PM 25.8030 -80.2520 85° East 192 221 1,600 2,933 Climbing FlightAware
03:17PM 25.8030 -80.2200 90° East 218 251 2,900 2,727 Climbing FlightAware
03:17PM 25.8050 -80.1890 86° East 237 273 4,100 2,618 Climbing FlightAware
03:18PM 25.8110 -80.1520 80° East 258 297 5,300 1,950 Climbing FlightAware
03:18PM 25.8180 -80.1420 52° Northeast 261 300 5,400 720 Climbing FlightAware
03:18PM 25.8320 -80.1320 33° Northeast 264 304 5,600 720 Climbing FlightAware
03:18PM 25.8460 -80.1290 11° North 267 307 5,700 720 Climbing FlightAware
03:20PM 25.9380 -80.1820 333° Northwest 271 312 6,800 1,275 Climbing FlightAware
03:21PM 26.0120 -80.2370 326° Northwest 283 326 9,100 2,489 Climbing FlightAware
03:22PM 26.0830 -80.3000 321° Northwest 300 345 12,400 2,891 Climbing FlightAware
03:23PM 26.1310 -80.3420 322° Northwest 309 356 14,400 2,894 Climbing FlightAware
03:24PM 26.1830 -80.3870 322° Northwest 308 354 16,500 2,629 Climbing FlightAware
03:25PM 26.2610 -80.4440 327° Northwest 330 380 19,000 2,139 Climbing FlightAware
03:25PM 26.3320 -80.4780 337° Northwest 351 404 20,600 1,832 Climbing FlightAware
03:26PM 26.4030 -80.5120 337° Northwest 365 420 21,900 1,906 Climbing FlightAware
03:27PM 26.4690 -80.5430 337° Northwest 381 438 23,300 1,950 Climbing FlightAware
03:28PM 26.5350 -80.5740 337° Northwest 383 441 24,500 1,694 Climbing FlightAware
03:28PM 26.6110 -80.6110 336° Northwest 404 465 25,700 1,624 Climbing FlightAware
03:29PM 26.6820 -80.6440 337° Northwest 406 467 26,800 1,553 Climbing FlightAware
03:30PM 26.7640 -80.6830 337° Northwest 423 487 27,900 1,553 Climbing FlightAware
03:30PM 26.8400 -80.7130 341° North 422 486 29,000 1,575 Climbing FlightAware
03:31PM 26.9160 -80.7400 342° North 424 488 30,000 1,835 Climbing FlightAware
03:32PM 26.9990 -80.7700 342° North 420 483 31,600 2,047 Climbing FlightAware
03:32PM 27.0710 -80.7960 342° North 404 465 32,900 988 Climbing FlightAware
03:33PM 27.1490 -80.8250 342° North 404 465 33,000 71 Climbing FlightAware
03:34PM 27.2240 -80.8520 342° North 403 464 33,000  Level FlightAware
03:35PM 27.3000 -80.8800 342° North 409 471 33,000  Level FlightAware
03:35PM 27.3810 -80.9090 342° North 407 468 33,000  Level FlightAware
03:36PM 27.4540 -80.9360 342° North 406 467 33,000  Level FlightAware
03:37PM 27.5310 -80.9640 342° North 405 466 33,000  Level FlightAware
03:37PM 27.6060 -80.9920 342° North 404 465 33,000  Level FlightAware
03:38PM 27.6750 -81.0170 342° North 403 464 33,000  Level FlightAware
03:39PM 27.7380 -81.0410 341° North 394 453 33,000  Level FlightAware
03:39PM 27.8170 -81.0700 342° North 393 452 33,000  Level FlightAware
03:40PM 27.8890 -81.0960 342° North 392 451 33,000  Level FlightAware
03:41PM 27.9990 -81.1360 342° North 393 452 33,000  Level FlightAware
03:42PM 28.0650 -81.1600 342° North 402 463 33,000  Level FlightAware
03:43PM 28.1530 -81.1920 342° North 402 463 33,000  Level FlightAware
03:43PM 28.2210 -81.2170 342° North 403 464 33,000  Level FlightAware
03:45PM 28.3910 -81.2790 342° North 403 464 33,000  Level FlightAware
03:46PM 28.4770 -81.3110 342° North 402 463 33,000  Level FlightAware
03:50PM 28.9340 -81.3730 353° North 400 460 33,000  Level FlightAware
03:53PM 29.3040 -81.4090 355° North 401 461 33,000  Level FlightAware
03:55PM 29.4690 -81.4240 355° North 401 461 33,000  Level FlightAware
03:55PM 29.5430 -81.4320 355° North 401 461 33,000  Level FlightAware
03:56PM 29.6260 -81.4400 355° North 401 461 33,000  Level FlightAware
03:57PM 29.6890 -81.4460 355° North 401 461 33,000  Level FlightAware
03:57PM 29.7520 -81.4530 354° North 401 461 33,000  Level FlightAware
03:58PM 29.8310 -81.4610 355° North 401 461 33,000  Level FlightAware
03:59PM 29.8930 -81.4670 355° North 401 461 33,000  Level FlightAware
03:59PM 29.9560 -81.4730 355° North 401 461 33,000  Level FlightAware
04:00PM 30.0190 -81.4800 355° North 401 461 33,000  Level FlightAware
04:01PM 30.0980 -81.4880 355° North 401 461 33,000  Level FlightAware
04:02PM 30.1610 -81.4940 355° North 401 461 33,000  Level FlightAware
04:02PM 30.2230 -81.5000 355° North 401 461 33,000  Level FlightAware
04:03PM 30.2860 -81.5070 355° North 401 461 33,000  Level FlightAware
04:04PM 30.3490 -81.5130 355° North 401 461 33,000  Level FlightAware
04:04PM 30.4280 -81.5210 355° North 401 461 33,000  Level FlightAware
04:05PM 30.4900 -81.5270 355° North 401 461 33,000  Level FlightAware
04:06PM 30.7619 -81.4758 355° North 403 464 33,000  Level Jacksonville Center
04:07PM 30.8767 -81.4694 North 403 464 33,000  Level Jacksonville Center
04:08PM 30.9914 -81.4581 North 403 464 33,000  Level Jacksonville Center
04:09PM 31.1039 -81.4514 North 403 464 33,000  Level Jacksonville Center
04:10PM 31.2186 -81.4397 North 403 464 33,000  Level Jacksonville Center
04:11PM 31.3311 -81.4186 North 403 464 33,000  Level Jacksonville Center
04:12PM 31.4436 -81.3853 14° North 409 471 33,000  Level Jacksonville Center
04:13PM 31.5706 -81.3514 13° North 412 474 33,000  Level Jacksonville Center
04:14PM 31.6725 -81.3253 12° North 412 474 33,000  Level Jacksonville Center
04:15PM 31.7972 -81.2939 12° North 412 474 33,000  Level Jacksonville Center
04:21PM 32.4200 -81.1760 12° North 405 466 33,000  Level FlightAware
04:21PM 32.4900 -81.1700 North 405 466 33,000  Level FlightAware
04:22PM 32.5970 -81.1610 North 33,000  Level FlightAware
04:23PM 32.6840 -81.1540 North 405 466 33,000  Level FlightAware
04:24PM 32.7600 -81.1480 North 405 466 33,000  Level FlightAware
04:24PM 32.8430 -81.1410 North 405 466 33,000  Level FlightAware
04:25PM 32.9130 -81.1350 North 405 466 33,000  Level FlightAware
04:26PM 33.0020 -81.1270 North 410 472 33,000  Level FlightAware
04:27PM 33.0770 -81.1210 North 412 474 33,000  Level FlightAware
04:27PM 32.8500 -81.1400 184° South 33,000  Level FlightAware
04:28PM 33.2060 -81.0720 North 437 503 33,000  Level FlightAware
04:28PM 33.2750 -81.0210 32° Northeast 436 502 33,000  Level FlightAware
04:29PM 33.3480 -80.9670 32° Northeast 436 502 33,000  Level FlightAware
04:30PM 33.4210 -80.9130 32° Northeast 434 499 33,000  Level FlightAware
04:31PM 33.4960 -80.8580 31° Northeast 432 497 33,000  Level FlightAware
04:31PM 33.5650 -80.8070 32° Northeast 431 496 33,000 635 Level FlightAware
04:32PM 33.6380 -80.7530 32° Northeast 431 496 33,900 1,200 Climbing FlightAware
04:33PM 33.7070 -80.7010 32° Northeast 434 499 34,700 776 Climbing FlightAware
04:33PM 33.7780 -80.6490 31° Northeast 435 501 35,000 212 Climbing FlightAware
04:34PM 33.8530 -80.5930 32° Northeast 433 498 35,000 -494 Level FlightAware
04:35PM 33.9270 -80.5380 32° Northeast 417 480 34,300 -1,482 Descending FlightAware
04:35PM 33.9900 -80.4900 32° Northeast 406 467 32,900 -1,835 Descending FlightAware
04:36PM 34.0640 -80.4350 32° Northeast 410 472 31,700 -1,271 Descending FlightAware
04:37PM 34.1320 -80.3850 31° Northeast 431 496 31,100 -1,650 Descending FlightAware
04:38PM 34.1940 -80.3380 32° Northeast 441 507 29,500 -2,175 Descending FlightAware
04:38PM 34.2640 -80.2850 32° Northeast 435 501 28,200 -1,553 Descending FlightAware
04:39PM 34.3460 -80.2240 32° Northeast 424 488 27,300 -800 Descending FlightAware
04:40PM 34.4170 -80.1700 32° Northeast 423 487 27,000 -225 Descending FlightAware
04:40PM 34.4780 -80.1240 32° Northeast 422 486 27,000  Level FlightAware
04:41PM 34.5520 -80.0670 32° Northeast 420 483 27,000  Level FlightAware
04:42PM 34.6230 -80.0140 32° Northeast 418 481 27,000  Level FlightAware
04:42PM 34.6810 -79.9700 32° Northeast 417 480 27,000  Level FlightAware
04:43PM 34.7210 -79.9390 32° Northeast 417 480 27,000  Level FlightAware
04:44PM 34.7910 -79.8860 32° Northeast 417 480 27,000  Level FlightAware
04:45PM 34.8460 -79.8440 32° Northeast 417 480 27,000  Level FlightAware
04:45PM 34.9020 -79.8020 32° Northeast 417 480 27,000  Level FlightAware
04:46PM 34.9580 -79.7590 32° Northeast 417 480 27,000  Level FlightAware
04:47PM 35.0130 -79.7170 32° Northeast 417 480 27,000 -324 Level FlightAware
04:52PM 35.5760 -79.1280 40° Northeast 411 473 25,000 -324 Descending FlightAware
04:53PM 35.6330 -79.0620 43° Northeast 411 473 25,000  Level FlightAware
04:54PM 35.6860 -79.0000 44° Northeast 410 472 25,000  Level FlightAware
04:54PM 35.7470 -78.9270 44° Northeast 410 472 25,000  Level FlightAware
04:55PM 35.8020 -78.8630 43° Northeast 411 473 25,000  Level FlightAware
04:56PM 35.8660 -78.7880 44° Northeast 412 474 25,000  Level FlightAware
04:56PM 35.9220 -78.7230 43° Northeast 411 473 25,000  Level FlightAware
04:57PM 35.9760 -78.6600 43° Northeast 410 472 25,000  Level FlightAware
04:58PM 36.0360 -78.5900 43° Northeast 410 472 25,000  Level FlightAware
04:58PM 36.0800 -78.5460 39° Northeast 396 456 25,000  Level FlightAware
04:59PM 36.1460 -78.5050 27° Northeast 389 448 25,000  Level FlightAware
05:00PM 36.2090 -78.4660 27° Northeast 388 447 25,000  Level FlightAware
05:00PM 36.2820 -78.4200 27° Northeast 387 445 25,000  Level FlightAware
05:01PM 36.3430 -78.3820 27° Northeast 385 443 25,000  Level FlightAware
05:02PM 36.4110 -78.3390 27° Northeast 388 447 25,000  Level FlightAware
05:02PM 36.4750 -78.2990 27° Northeast 389 448 25,000  Level FlightAware
05:03PM 36.5330 -78.2640 26° Northeast 389 448 25,000  Level FlightAware
05:04PM 36.6290 -78.2050 26° Northeast 387 445 25,000  Level FlightAware
05:05PM 36.6830 -78.1710 27° Northeast 387 445 25,000 -667 Level FlightAware
05:06PM 36.7780 -78.1130 26° Northeast 384 442 24,000 -667 Descending FlightAware
05:06PM 36.8460 -78.0860 18° North 378 435 24,000  Level FlightAware
05:07PM 36.9090 -78.0510 24° Northeast 389 448 24,000  Level FlightAware
05:08PM 36.9830 -77.9990 29° Northeast 391 450 24,000  Level FlightAware
05:08PM 37.0460 -77.9540 30° Northeast 391 450 24,000  Level FlightAware
05:09PM 37.1080 -77.9100 30° Northeast 391 450 24,000  Level FlightAware
05:10PM 37.1780 -77.8600 30° Northeast 392 451 24,000  Level FlightAware
05:10PM 37.2350 -77.8190 30° Northeast 393 452 24,000  Level FlightAware
05:11PM 37.3050 -77.7690 30° Northeast 394 453 24,000  Level FlightAware
05:12PM 37.3780 -77.7180 29° Northeast 396 456 24,000  Level FlightAware
05:13PM 37.4400 -77.6730 30° Northeast 396 456 24,000  Level FlightAware
05:18PM 37.9880 -77.2760 30° Northeast 398 458 24,000  Level FlightAware
05:19PM 38.0410 -77.2370 30° Northeast 398 458 24,000  Level FlightAware
05:20PM 38.1160 -77.1820 30° Northeast 398 458 24,000  Level FlightAware
05:20PM 38.1860 -77.1310 30° Northeast 398 458 24,000  Level FlightAware
05:21PM 38.2470 -77.0850 31° Northeast 400 460 24,000  Level FlightAware
05:22PM 38.3220 -77.0300 30° Northeast 401 461 24,000  Level FlightAware
05:22PM 38.3870 -76.9820 30° Northeast 400 460 24,000  Level FlightAware
05:23PM 38.4530 -76.9330 30° Northeast 411 473 24,000  Level FlightAware
05:24PM 38.5039 -76.8956 30° Northeast 412 474 24,000  Level FlightAware ADS-B
05:24PM 38.5618 -76.8525 30° Northeast 414 476 24,000  Level FlightAware ADS-B
05:25PM 38.6164 -76.8118 30° Northeast 415 478 24,000 -277 Level FlightAware ADS-B
05:25PM 38.6694 -76.7719 30° Northeast 418 481 23,700 -750 Descending FlightAware ADS-B
05:26PM 38.7110 -76.7119 48° Northeast 438 504 23,200 -894 Descending FlightAware ADS-B
05:26PM 38.7204 -76.6738 72° East 442 509 23,000 -667 Descending FlightAware ADS-B
05:26PM 38.7362 -76.5978 75° East 440 506 22,700 -831 Descending FlightAware ADS-B
05:27PM 38.7542 -76.5117 75° East 423 487 22,100 -1,612 Descending FlightAware ADS-B
05:28PM 38.7699 -76.4366 75° East 415 478 20,900 -2,522 Descending FlightAware ADS-B
05:28PM 38.7886 -76.3477 75° East 420 483 19,200 -2,500 Descending FlightAware ADS-B
05:29PM 38.8057 -76.2635 75° East 416 479 17,900 -2,182 Descending FlightAware ADS-B
05:29PM 38.8205 -76.1910 75° East 406 467 16,800 -2,032 Descending FlightAware ADS-B
05:30PM 38.8349 -76.1205 75° East 399 459 15,800 -1,833 Descending FlightAware ADS-B
05:31PM 38.8538 -76.0278 75° East 390 449 14,600 -1,000 Descending FlightAware ADS-B
05:31PM 38.8679 -75.9592 75° East 392 451 14,600  Level FlightAware ADS-B
05:32PM 38.8831 -75.8833 76° East 392 451 14,600  Level FlightAware ADS-B
05:32PM 38.8925 -75.8513 69° East 388 447 14,600  Level FlightAware ADS-B
05:32PM 38.9123 -75.8192 52° Northeast 381 438 14,600  Level FlightAware ADS-B
05:32PM 38.9303 -75.8014 38° Northeast 374 430 14,600  Level FlightAware ADS-B
05:33PM 38.9727 -75.7614 36° Northeast 373 429 14,600 -677 Level FlightAware ADS-B
05:33PM 39.0161 -75.7205 36° Northeast 375 432 13,900 -1,615 Descending FlightAware ADS-B
05:34PM 39.0456 -75.6938 35° Northeast 367 422 13,200 -1,750 Descending FlightAware ADS-B
05:34PM 39.0502 -75.6905 29° Northeast 365 420 13,200 -1,385 Level FlightAware ADS-B
05:34PM 39.0659 -75.6819 23° Northeast 356 410 12,900 -1,765 Descending FlightAware ADS-B
05:34PM 39.0774 -75.6777 16° North 353 406 12,700 -1,600 Descending FlightAware ADS-B
05:34PM 39.0886 -75.6751 10° North 345 397 12,500 -1,895 Descending FlightAware ADS-B
05:35PM 39.1354 -75.6696 North 337 388 11,500 -2,164 Descending FlightAware ADS-B
05:35PM 39.1831 -75.6648 North 329 379 10,300 -2,043 Descending FlightAware ADS-B
05:35PM 39.2079 -75.6622 North 320 368 9,900 -1,313 Descending FlightAware ADS-B
05:36PM 39.2303 -75.6597 North 306 352 9,600 -545 Descending FlightAware ADS-B
05:36PM 39.2535 -75.6568 North 290 334 9,600  Level FlightAware ADS-B
05:36PM 39.2734 -75.6538 North 283 326 9,600  Level FlightAware ADS-B
05:37PM 39.2919 -75.6456 19° North 286 329 9,600  Level FlightAware ADS-B
05:37PM 39.2974 -75.6418 28° Northeast 288 331 9,600 -667 Level FlightAware ADS-B
05:37PM 39.3018 -75.6382 32° Northeast 288 331 9,500 -1,680 Descending FlightAware ADS-B
05:37PM 39.3254 -75.6178 34° Northeast 290 334 8,900 -1,579 Descending FlightAware ADS-B
05:37PM 39.3439 -75.6016 34° Northeast 289 333 8,500 -1,455 Descending FlightAware ADS-B
05:38PM 39.3620 -75.5859 34° Northeast 287 330 8,100 -1,500 Descending FlightAware ADS-B
05:38PM 39.3753 -75.5739 35° Northeast 285 328 7,800 -1,263 Descending FlightAware ADS-B
05:38PM 39.3815 -75.5669 41° Northeast 286 329 7,700 -1,286 Descending FlightAware ADS-B
05:38PM 39.3880 -75.5568 50° Northeast 287 330 7,500 -1,500 Descending FlightAware ADS-B
05:38PM 39.3915 -75.5497 57° Northeast 289 333 7,400 -1,385 Descending FlightAware ADS-B
05:38PM 39.3962 -75.5367 65° Northeast 289 333 7,200 -1,125 Descending FlightAware ADS-B
05:38PM 39.3995 -75.5255 69° East 287 330 7,100 -1,043 Descending FlightAware ADS-B
05:39PM 39.4069 -75.5004 69° East 284 327 6,800 -1,000 Descending FlightAware ADS-B
05:39PM 39.4140 -75.4767 69° East 282 325 6,600 -387 Descending FlightAware ADS-B
05:39PM 39.4211 -75.4530 69° East 279 321 6,600  Level FlightAware ADS-B
05:39PM 39.4284 -75.4294 68° East 277 319 6,600 -273 Level FlightAware ADS-B
05:40PM 39.4332 -75.4187 60° Northeast 274 315 6,500 -522 Descending FlightAware ADS-B
05:40PM 39.4458 -75.3985 51° Northeast 274 315 6,400 -545 Descending FlightAware ADS-B
05:40PM 39.4594 -75.3774 50° Northeast 275 316 6,200 -500 Descending FlightAware ADS-B
05:40PM 39.4746 -75.3542 50° Northeast 274 315 6,100 -474 Descending FlightAware ADS-B
05:41PM 39.4907 -75.3300 49° Northeast 273 314 5,900 -474 Descending FlightAware ADS-B
05:41PM 39.5061 -75.3069 49° Northeast 272 313 5,800 -500 Descending FlightAware ADS-B
05:41PM 39.5198 -75.2863 49° Northeast 268 308 5,600 -375 Descending FlightAware ADS-B
05:42PM 39.5318 -75.2685 49° Northeast 259 298 5,600  Level FlightAware ADS-B
05:42PM 39.5435 -75.2510 49° Northeast 257 296 5,600  Level FlightAware ADS-B
05:42PM 39.5553 -75.2334 49° Northeast 256 295 5,600  Level FlightAware ADS-B
05:42PM 39.5671 -75.2155 49° Northeast 256 295 5,600  Level FlightAware ADS-B
05:43PM 39.5789 -75.1976 49° Northeast 254 292 5,600  Level FlightAware ADS-B
05:43PM 39.5904 -75.1802 49° Northeast 253 291 5,600  Level FlightAware ADS-B
05:43PM 39.6018 -75.1627 50° Northeast 253 291 5,600  Level FlightAware ADS-B
05:43PM 39.6072 -75.1547 49° Northeast 252 290 5,600  Level FlightAware ADS-B
05:43PM 39.6214 -75.1342 48° Northeast 251 289 5,600  Level FlightAware ADS-B
05:44PM 39.6432 -75.1170 31° Northeast 257 296 5,600  Level FlightAware ADS-B
05:44PM 39.6600 -75.1049 29° Northeast 257 296 5,600 -194 Level FlightAware ADS-B
05:44PM 39.6758 -75.0934 29° Northeast 254 292 5,500 -774 Descending FlightAware ADS-B
05:45PM 39.6914 -75.0819 30° Northeast 252 290 5,200 -941 Descending FlightAware ADS-B
05:45PM 39.7220 -75.0600 29° Northeast 237 273 4,700 -857 Descending FlightAware
05:45PM 39.7332 -75.0521 28° Northeast 240 276 4,600 -818 Descending FlightAware ADS-B
05:46PM 39.7480 -75.0416 29° Northeast 237 273 4,400 -1,161 Descending FlightAware ADS-B
05:46PM 39.7631 -75.0307 29° Northeast 239 275 4,000 -1,143 Descending FlightAware ADS-B
05:46PM 39.7684 -75.0273 26° Northeast 237 273 4,000 -667 Level FlightAware ADS-B
05:46PM 39.7723 -75.0256 19° North 237 273 3,900 -857 Descending FlightAware ADS-B
05:46PM 39.7759 -75.0247 11° North 236 272 3,900  Level FlightAware ADS-B
05:46PM 39.7802 -75.0242 North 235 270 3,900 -600 Level FlightAware ADS-B
05:46PM 39.7858 -75.0247 356° North 232 267 3,800 -1,091 Descending FlightAware ADS-B
05:46PM 39.7918 -75.0262 349° North 229 264 3,700 -1,714 Descending FlightAware ADS-B
05:47PM 39.8083 -75.0312 347° North 227 261 3,200 -1,765 Descending FlightAware ADS-B
05:47PM 39.8266 -75.0366 347° North 223 257 2,700 -1,119 Descending FlightAware ADS-B
05:48PM 39.8650 -75.0490 346° North 215 247 2,100 -933 Descending FlightAware ADS-B
05:48PM 39.8682 -75.0508 337° Northwest 205 236 2,000 -857 Descending FlightAware ADS-B
05:48PM 39.8708 -75.0530 327° Northwest 205 236 2,000 -857 Level FlightAware ADS-B
05:48PM 39.8739 -75.0565 319° Northwest 200 230 1,900 -1,333 Descending FlightAware ADS-B
05:48PM 39.8764 -75.0601 312° West 195 224 1,800 -600 Descending FlightAware ADS-B
05:48PM 39.8792 -75.0650 307° West 190 219 1,800 -462 Level FlightAware ADS-B
05:48PM 39.8828 -75.0721 303° West 180 207 1,700 -706 Descending FlightAware ADS-B
05:48PM 39.8865 -75.0803 300° West 177 204 1,600 -727 Descending FlightAware ADS-B
05:49PM 39.8940 -75.1036 293° West 179 206 1,300 -621 Descending FlightAware ADS-B
05:49PM 39.8945 -75.1084 278° West 165 190 1,300  Level FlightAware ADS-B
05:49PM 39.8948 -75.1163 273° West 153 176 1,300  Level FlightAware ADS-B
05:49PM 39.8946 -75.1210 267° West 142 163 1,300 -600 Level FlightAware ADS-B
05:49PM 39.8942 -75.1248 262° West 138 159 1,200 -923 Descending FlightAware ADS-B
05:49PM 39.8933 -75.1320 261° West 137 158 1,100 -706 Descending FlightAware ADS-B
05:49PM 39.8922 -75.1385 258° West 138 159 1,000 -1,000 Descending FlightAware ADS-B
05:49PM 39.8917 -75.1415 258° West 138 159 900 -1,000 Descending FlightAware ADS-B
05:49PM 39.8903 -75.1484 255° West 137 158 800 -429 Descending FlightAware ADS-B
05:50PM 39.8893 -75.1532 255° West 136 157 800 -706 Level FlightAware ADS-B
05:50PM 39.8874 -75.1622 255° West 141 162 600 -889 Descending FlightAware ADS-B
05:50PM 39.8849 -75.1747 255° West 139 160 400 -750 Descending FlightAware ADS-B
05:50PM 39.8823 -75.1879 256° West 138 159 200 -750 Descending FlightAware ADS-B
05:51PM 39.8770 -75.2120 254° West 139 160 -324 Descending FlightAware